Weather History for K9D7 - February, 2013

Change the Weather History Date:

Monday, February 11, 2013

  Actual Average Record
Temperature  
Mean Temperature 16 °F -  
Max Temperature 19 °F - - ()
Min Temperature 14 °F - - ()
Degree Days  
Heating Degree Days 48    
Moisture  
Dew Point 16 °F    
Average Humidity 94    
Maximum Humidity 100    
Minimum Humidity 86    
Precipitation  
Precipitation 0.00 in - - ()
Sea Level Pressure  
Sea Level Pressure 29.89 in    
Wind  
Wind Speed 18 mph (WNW)    
Max Wind Speed 25 mph    
Max Gust Speed 30 mph    
Visibility 10 miles    
Events Snow    
T = Trace of Precipitation, MM = Missing Value Source: NWS Daily Summary

Daily Weather History Graph

Daily Weather History Graph

Search for Another Location

Airport or City:

Trip Planner

Search our weather history database for the weather conditions in past years. The results will help you decide how hot, cold, wet, or windy it might be!

Date:

Astronomy

Feb. 11, 2013 Rise Set
Actual Time 7:50 AM CST 5:52 PM CST
Civil Twilight 7:17 AM CST 6:25 PM CST
Nautical Twilight 6:41 AM CST 7:02 PM CST
Astronomical Twilight 6:04 AM CST 7:38 PM CST
Moon 8:04 AM CST (2/11) 8:05 PM CST (2/11)
Length of Visible Light 11h 07m
Length of Day
10h 02m
Waxing Crescent, 3% of the Moon is Illuminated
Feb 11
Waxing Crescent
Feb 17
First Quarter
Feb 25
Full
Mar 4
Last Quarter
Mar 11
New

Hourly Weather History & Observations

Time (CST) Temp. Windchill Dew Point Humidity Pressure Visibility Wind Dir Wind Speed Gust Speed Precip Events Conditions
12:15 AM 19.4 °F 2.1 °F 19.4 °F 100% 29.86 in 10.0 mi North 24.2 mph 28.8 mph N/A   Overcast
12:35 AM 19.4 °F 1.8 °F 19.4 °F 100% 29.87 in 10.0 mi North 25.3 mph 29.9 mph N/A   Overcast
12:55 AM 19.4 °F 3.2 °F 19.4 °F 100% 29.87 in 10.0 mi North 20.7 mph 28.8 mph N/A Snow Light Snow
1:15 AM 19.4 °F 4.1 °F 17.6 °F 93% 29.88 in 10.0 mi North 18.4 mph 27.6 mph N/A Snow Light Snow
1:35 AM 17.6 °F 0.1 °F 17.6 °F 100% 29.88 in 10.0 mi North 23.0 mph 29.9 mph N/A   Overcast
1:55 AM 17.6 °F 0.5 °F 17.6 °F 100% 29.88 in 10.0 mi North 21.9 mph 26.5 mph N/A   Overcast
2:15 AM 17.6 °F 0.5 °F 17.6 °F 100% 29.89 in 10.0 mi North 21.9 mph 27.6 mph N/A Snow Light Snow
2:35 AM 17.6 °F 0.5 °F 17.6 °F 100% 29.89 in 10.0 mi NNW 21.9 mph - N/A   Overcast
2:55 AM 17.6 °F 0.1 °F 17.6 °F 100% 29.89 in 10.0 mi NNW 23.0 mph 27.6 mph N/A   Overcast
3:15 AM 17.6 °F 1.3 °F 17.6 °F 100% 29.90 in 7.0 mi North 19.6 mph 23.0 mph N/A   Overcast
3:35 AM 17.6 °F 1.3 °F 17.6 °F 100% 29.91 in 10.0 mi North 19.6 mph 28.8 mph N/A   Overcast
3:55 AM 17.6 °F 1.7 °F 17.6 °F 100% 29.91 in 7.0 mi North 18.4 mph 24.2 mph N/A   Overcast
4:15 AM 17.6 °F 2.7 °F 17.6 °F 100% 29.91 in 10.0 mi NNW 16.1 mph - N/A   Overcast
4:35 AM 17.6 °F 1.7 °F 17.6 °F 100% 29.91 in 10.0 mi NNW 18.4 mph - N/A   Overcast
4:55 AM 17.6 °F 1.7 °F 15.8 °F 93% 29.91 in 10.0 mi NNW 18.4 mph - N/A   Overcast
5:15 AM 17.6 °F 1.7 °F 15.8 °F 93% 29.92 in 10.0 mi NNW 18.4 mph - N/A   Overcast
5:35 AM 17.6 °F 1.3 °F 17.6 °F 100% 29.92 in 10.0 mi NNW 19.6 mph - N/A   Overcast
6:15 AM 17.6 °F 1.7 °F 15.8 °F 93% 29.92 in 10.0 mi NNW 18.4 mph - N/A   Overcast
6:35 AM 17.6 °F 3.2 °F 15.8 °F 93% 29.93 in 10.0 mi NNW 15.0 mph - N/A   Overcast
6:55 AM 17.6 °F 2.7 °F 15.8 °F 93% 29.94 in 10.0 mi NNW 16.1 mph - N/A   Overcast
7:15 AM 17.6 °F 3.7 °F 15.8 °F 93% 29.94 in 10.0 mi NNW 13.8 mph - N/A   Overcast
7:35 AM 17.6 °F 0.9 °F 15.8 °F 93% 29.94 in 10.0 mi NNW 20.7 mph - N/A   Overcast
7:55 AM 14.0 °F -1.4 °F 14.0 °F 100% 29.95 in 10.0 mi NNW 15.0 mph - N/A   Mostly Cloudy
8:15 AM 15.8 °F -1.1 °F 14.0 °F 93% 29.96 in 10.0 mi NNW 19.6 mph - N/A   Overcast
8:35 AM 15.8 °F -0.2 °F 15.8 °F 100% 29.96 in 10.0 mi NNW 17.3 mph 20.7 mph N/A Snow Light Snow
8:55 AM 15.8 °F 1.4 °F 15.8 °F 100% 29.97 in 10.0 mi NNW 13.8 mph - N/A Snow Light Snow
9:15 AM 17.6 °F 3.2 °F 15.8 °F 93% 29.96 in 4.0 mi NNW 15.0 mph - N/A   Overcast
9:35 AM 17.6 °F 5.0 °F 17.6 °F 100% 29.96 in 2.0 mi NW 11.5 mph - N/A Snow Light Snow
9:55 AM 17.6 °F 5.0 °F 17.6 °F 100% 29.96 in 2.0 mi NW 11.5 mph - N/A Snow Light Snow
10:15 AM 17.6 °F 5.7 °F 17.6 °F 100% 29.96 in 9.0 mi NW 10.4 mph - N/A   Overcast
10:35 AM 17.6 °F 5.0 °F 17.6 °F 100% 29.97 in 10.0 mi NW 11.5 mph - N/A   Overcast
10:55 AM 17.6 °F 3.7 °F 17.6 °F 100% 29.97 in 10.0 mi WNW 13.8 mph - N/A Snow Light Snow
11:15 AM 17.6 °F 2.7 °F 17.6 °F 100% 29.97 in 10.0 mi WNW 16.1 mph - N/A Snow Light Snow
11:35 AM 17.6 °F 3.2 °F 17.6 °F 100% 29.97 in 10.0 mi WNW 15.0 mph - N/A Snow Light Snow
11:55 AM 17.6 °F 3.2 °F 17.6 °F 100% 29.96 in 10.0 mi WNW 15.0 mph - N/A   Overcast
12:15 PM 17.6 °F 3.7 °F 17.6 °F 100% 29.96 in 10.0 mi WNW 13.8 mph - N/A   Overcast
12:35 PM 19.4 °F 5.5 °F 15.8 °F 86% 29.95 in 10.0 mi WNW 15.0 mph - N/A   Overcast
12:55 PM 17.6 °F 3.2 °F 15.8 °F 93% 29.94 in 10.0 mi WNW 15.0 mph - N/A   Overcast
1:15 PM 17.6 °F 2.2 °F 15.8 °F 93% 29.94 in 10.0 mi WNW 17.3 mph - N/A   Overcast
1:35 PM 17.6 °F 2.7 °F 15.8 °F 93% 29.94 in 10.0 mi WNW 16.1 mph - N/A   Overcast
1:55 PM 17.6 °F 3.2 °F 15.8 °F 93% 29.93 in 10.0 mi WNW 15.0 mph - N/A   Mostly Cloudy
2:15 PM 17.6 °F 2.7 °F 15.8 °F 93% 29.93 in 10.0 mi West 16.1 mph - N/A   Scattered Clouds
2:35 PM 17.6 °F 3.7 °F 14.0 °F 86% 29.93 in 10.0 mi West 13.8 mph - N/A   Partly Cloudy
2:55 PM 17.6 °F 3.7 °F 14.0 °F 86% 29.93 in 10.0 mi West 13.8 mph - N/A Snow Light Snow
3:15 PM 17.6 °F 3.2 °F 14.0 °F 86% 29.92 in 10.0 mi West 15.0 mph - N/A Snow Light Snow
3:35 PM 17.6 °F 2.7 °F 14.0 °F 86% 29.92 in 9.0 mi West 16.1 mph - N/A Snow Light Snow
3:55 PM 17.6 °F 4.3 °F 14.0 °F 86% 29.91 in 10.0 mi West 12.7 mph - N/A Snow Light Snow
4:55 PM 15.8 °F 2.1 °F 14.0 °F 93% 29.90 in 10.0 mi West 12.7 mph - N/A Snow Light Snow
5:15 PM 17.6 °F 1.7 °F 14.0 °F 86% 29.90 in 7.0 mi West 18.4 mph 24.2 mph N/A Snow Light Snow
5:35 PM 17.6 °F 3.7 °F 14.0 °F 86% 29.89 in 10.0 mi West 13.8 mph - N/A   Overcast
5:55 PM 17.6 °F 5.0 °F 14.0 °F 86% 29.88 in 10.0 mi West 11.5 mph - N/A   Overcast
6:15 PM 17.6 °F 5.7 °F 14.0 °F 86% 29.87 in 10.0 mi SW 10.4 mph - N/A   Overcast
6:35 PM 15.8 °F 2.1 °F 14.0 °F 93% 29.87 in 10.0 mi SW 12.7 mph - N/A   Overcast
6:55 PM 17.6 °F 5.0 °F 14.0 °F 86% 29.86 in 10.0 mi SW 11.5 mph - N/A   Overcast
7:15 PM 17.6 °F 5.7 °F 15.8 °F 93% 29.86 in 10.0 mi SW 10.4 mph - N/A   Overcast
7:35 PM 17.6 °F 5.7 °F 15.8 °F 93% 29.85 in 10.0 mi SSW 10.4 mph - N/A   Overcast
7:55 PM 15.8 °F 4.2 °F 14.0 °F 93% 29.85 in 10.0 mi SW 9.2 mph - N/A   Overcast
8:15 PM 15.8 °F 2.7 °F 14.0 °F 93% 29.84 in 10.0 mi SSW 11.5 mph - N/A   Overcast
8:35 PM 15.8 °F 2.7 °F 14.0 °F 93% 29.83 in 10.0 mi SSW 11.5 mph - N/A   Mostly Cloudy
8:55 PM 15.8 °F 2.1 °F 14.0 °F 93% 29.82 in 10.0 mi SSW 12.7 mph - N/A   Partly Cloudy
9:15 PM 15.8 °F 2.7 °F 14.0 °F 93% 29.81 in 10.0 mi SSW 11.5 mph - N/A   Mostly Cloudy
9:35 PM 15.8 °F 1.4 °F 14.0 °F 93% 29.80 in 10.0 mi SSW 13.8 mph - N/A   Overcast
9:55 PM 17.6 °F 3.2 °F 15.8 °F 93% 29.79 in 10.0 mi SW 15.0 mph - N/A   Overcast
10:15 PM 17.6 °F 2.7 °F 15.8 °F 93% 29.78 in 7.0 mi SW 16.1 mph - N/A   Overcast
10:35 PM 19.4 °F 4.5 °F 17.6 °F 93% 29.77 in 10.0 mi SW 17.3 mph - N/A   Overcast
10:55 PM 17.6 °F 3.2 °F 15.8 °F 93% 29.76 in 10.0 mi SW 15.0 mph - N/A   Overcast
11:15 PM 19.4 °F 6.0 °F 15.8 °F 86% 29.75 in 10.0 mi SW 13.8 mph - N/A   Overcast
11:35 PM 19.4 °F 5.5 °F 15.8 °F 86% 29.74 in 10.0 mi SW 15.0 mph - N/A   Overcast
11:55 PM 19.4 °F 4.5 °F 15.8 °F 86% 29.74 in 10.0 mi SW 17.3 mph - N/A   Partly Cloudy